FW4251 Weather Reports


Display with metric or nautical units.
time (UTC)temp
F
wind
direction
speed
MPH
gust
MPH
rain 1hr
in
rain 24hr
in
rain mn
in
humidity
%
barometer
mb
20260902130007 62 156 0.0 3.0 0.00 0.00 0.00 94 1021.2
20260902125506 62 156 0.0 3.0 0.00 0.00 0.00 94 1020.9
20260902125005 62 156 1.0 3.0 0.00 0.00 0.00 94 1020.7
20260902124507 62 156 1.0 3.0 0.00 0.00 0.00 94 1020.7
20260902124005 62 156 0.0 3.0 0.00 0.00 0.00 94 1020.8
20260902123505 62 156 0.0 3.0 0.00 0.00 0.00 94 1020.7
20260902123005 62 154 0.0 5.0 0.00 0.00 0.00 94 1020.7
20260902122505 62 154 1.0 5.0 0.00 0.00 0.00 94 1020.7
20260902122004 62 159 0.0 3.0 0.00 0.00 0.00 94 1020.5
20260902121504 62 159 1.0 3.0 0.00 0.00 0.00 94 1020.4
20260902121004 62 159 0.0 3.0 0.00 0.00 0.00 94 1020.4
20260902120504 62 142 0.0 2.0 0.00 0.00 0.00 94 1020.5
20260902120002 63 142 0.0 2.0 0.00 0.00 0.00 94 1020.6
20260902115504 63 142 0.0 3.0 0.00 0.00 0.00 94 1020.6
20260902115002 63 142 1.0 3.0 0.00 0.00 0.00 94 1020.5
20260902114501 63 148 0.0 5.0 0.00 0.00 0.00 94 1020.5
20260902114003 63 148 1.0 5.0 0.00 0.00 0.00 94 1020.5
20260902113501 63 149 0.0 6.0 0.00 0.00 0.00 94 1020.5
20260902113001 63 161 1.0 4.0 0.00 0.00 0.00 94 1020.5
20260902112600 63 163 0.0 2.0 0.00 0.00 0.00 94 1020.6
20260902112100 63 163 0.0 0.0 0.00 0.00 0.00 94 1020.7
20260902111600 63 163 0.0 0.0 0.00 0.00 0.00 94 1020.6
20260902111059 63 163 0.0 1.0 0.00 0.00 0.00 94 1020.7
20260902110602 63 163 0.0 0.0 0.00 0.00 0.00 94 1020.6
20260902110059 63 164 0.0 0.0 0.00 0.00 0.00 94 1020.7
20260902105559 63 164 0.0 3.0 0.00 0.00 0.00 94 1020.6
20260902105058 63 164 0.0 3.0 0.00 0.00 0.00 94 1020.6
20260902104557 63 80 0.0 1.0 0.00 0.00 0.00 94 1020.6
20260902104058 63 80 0.0 0.0 0.00 0.00 0.00 94 1020.5
20260902103556 63 80 0.0 0.0 0.00 0.00 0.00 94 1020.5
20260902103056 63 80 0.0 1.0 0.00 0.00 0.00 94 1020.5
20260902102556 63 80 0.0 1.0 0.00 0.00 0.00 94 1020.3
20260902102056 63 80 0.0 0.0 0.00 0.00 0.00 94 1020.4
20260902101556 63 80 0.0 3.0 0.00 0.00 0.00 94 1020.4
20260902101055 63 80 0.0 3.0 0.00 0.00 0.00 94 1020.4
20260902100556 63 80 0.0 0.0 0.00 0.00 0.00 94 1020.4
20260902100054 63 80 0.0 0.0 0.00 0.00 0.00 94 1020.3
20260902095552 63 80 0.0 0.0 0.00 0.00 0.00 94 1020.3
20260902095056 63 80 0.0 0.0 0.00 0.00 0.00 94 1020.1
20260902094556 63 80 0.0 0.0 0.00 0.00 0.00 94 1020.1
20260902094053 63 80 0.0 0.0 0.00 0.00 0.00 94 1020.2
20260902093551 63 80 0.0 0.0 0.00 0.00 0.00 94 1020.1
20260902093050 63 80 0.0 0.0 0.00 0.00 0.00 94 1019.9
20260902092549 63 80 0.0 0.0 0.00 0.00 0.00 94 1019.9
20260902092049 63 80 0.0 0.0 0.00 0.00 0.00 94 1019.7
20260902091550 63 80 0.0 0.0 0.00 0.00 0.00 94 1019.7
20260902091049 63 80 0.0 0.0 0.00 0.00 0.00 94 1019.7
20260902090551 63 80 0.0 0.0 0.00 0.00 0.00 94 1019.7
20260902090049 63 80 0.0 0.0 0.00 0.00 0.00 94 1019.6
20260902085547 63 80 0.0 0.0 0.00 0.00 0.00 94 1019.6
20260902085047 63 80 0.0 0.0 0.00 0.00 0.00 94 1019.6
20260902084549 63 80 0.0 0.0 0.00 0.00 0.00 94 1019.5
20260902084047 63 80 0.0 0.0 0.00 0.00 0.00 94 1019.6
20260902083547 63 80 0.0 0.0 0.00 0.00 0.00 94 1019.6
20260902083049 63 80 0.0 0.0 0.00 0.00 0.00 94 1019.6
20260902082547 63 80 0.0 2.0 0.00 0.00 0.00 94 1019.5
20260902082046 63 80 0.0 2.0 0.00 0.00 0.00 94 1019.4
20260902081553 63 80 0.0 0.0 0.00 0.00 0.00 94 1019.4
20260902081046 63 80 0.0 0.0 0.00 0.00 0.00 94 1019.3
20260902080546 63 80 0.0 0.0 0.00 0.00 0.00 94 1019.2
20260902080046 63 80 0.0 0.0 0.00 0.00 0.00 94 1019.2
20260902075544 63 80 0.0 0.0 0.00 0.00 0.00 93 1019.1
20260902075048 63 80 0.0 1.0 0.00 0.00 0.00 93 1019.2
20260902074605 63 80 0.0 2.0 0.00 0.00 0.00 94 1019.3
20260902074046 63 80 0.0 2.0 0.00 0.00 0.00 94 1019.3
20260902073544 63 80 0.0 2.0 0.00 0.00 0.00 94 1019.4
20260902073044 64 80 0.0 3.0 0.00 0.00 0.00 94 1019.4
20260902072544 64 80 0.0 3.0 0.00 0.00 0.00 93 1019.4
20260902072043 64 80 0.0 3.0 0.00 0.00 0.00 93 1019.3
20260902071543 64 80 0.0 3.0 0.00 0.00 0.00 93 1019.4
20260902071043 64 80 1.0 3.0 0.00 0.00 0.00 93 1019.4
20260902070542 64 80 0.0 3.0 0.00 0.00 0.00 93 1019.5
20260902070043 64 80 0.0 3.0 0.00 0.00 0.00 93 1019.6
20260902065545 64 80 0.0 1.0 0.00 0.00 0.00 93 1019.5
20260902065042 64 80 0.0 1.0 0.00 0.00 0.00 93 1019.5
20260902064545 64 80 0.0 0.0 0.00 0.00 0.00 93 1019.6
20260902064041 64 80 0.0 0.0 0.00 0.00 0.00 93 1019.6
20260902063540 64 80 0.0 1.0 0.00 0.00 0.00 93 1019.6
20260902063100 64 80 0.0 1.0 0.00 0.00 0.00 93 1019.5
20260902062541 64 80 0.0 0.0 0.00 0.00 0.00 93 1019.5
20260902062040 64 80 0.0 2.0 0.00 0.00 0.00 93 1019.6
20260902061540 64 80 0.0 2.0 0.00 0.00 0.00 93 1019.6
20260902061040 64 80 0.0 0.0 0.00 0.00 0.00 93 1019.7
20260902060543 64 80 0.0 0.0 0.00 0.00 0.00 93 1019.7
20260902060052 64 80 0.0 0.0 0.00 0.00 0.00 93 1019.7
20260902055538 64 80 0.0 3.0 0.00 0.00 0.00 93 1019.6
20260902055038 64 80 0.0 3.0 0.00 0.00 0.00 93 1019.7
20260902054538 64 80 0.0 1.0 0.00 0.00 0.00 93 1019.7
20260902054036 64 80 0.0 2.0 0.00 0.00 0.00 93 1019.6
20260902053536 64 80 0.0 2.0 0.00 0.00 0.00 93 1019.6
20260902053036 64 80 0.0 2.0 0.00 0.00 0.00 93 1019.5
20260902052538 64 80 0.0 2.0 0.00 0.00 0.00 93 1019.6
20260902052035 64 80 0.0 3.0 0.00 0.00 0.00 93 1019.5
20260902051544 64 80 0.0 2.0 0.00 0.00 0.00 93 1019.4
20260902051033 64 80 0.0 1.0 0.00 0.00 0.00 93 1019.4
20260902050533 64 80 0.0 2.0 0.00 0.00 0.00 93 1019.2
20260902050033 64 80 0.0 2.0 0.00 0.00 0.00 93 1019.2
20260902045531 64 81 0.0 2.0 0.00 0.00 0.00 93 1019.2
20260902045030 64 80 0.0 3.0 0.00 0.00 0.00 93 1019.1
20260902044530 64 67 1.0 3.0 0.00 0.00 0.00 93 1019.1
20260902044030 65 67 0.0 3.0 0.00 0.00 0.00 93 1019.1
20260902043528 65 67 0.0 3.0 0.00 0.00 0.00 93 1018.9
20260902043028 65 67 0.0 2.0 0.00 0.00 0.00 93 1018.9
20260902042527 65 67 0.0 2.0 0.00 0.00 0.00 93 1018.8
20260902042028 65 67 0.0 2.0 0.00 0.00 0.00 93 1018.7
20260902041540 65 67 0.0 1.0 0.00 0.00 0.00 93 1018.8
20260902041025 65 67 0.0 1.0 0.00 0.00 0.00 93 1018.6
20260902040525 65 67 0.0 2.0 0.00 0.00 0.00 93 1018.5
20260902040026 65 67 0.0 1.0 0.00 0.00 0.00 93 1018.5
20260902035522 65 67 0.0 1.0 0.00 0.00 0.00 93 1018.5
20260902035022 65 67 0.0 2.0 0.00 0.00 0.00 93 1018.4
20260902034521 65 67 0.0 2.0 0.00 0.00 0.00 93 1018.4
20260902034021 65 67 0.0 7.0 0.00 0.00 0.00 93 1018.1
20260902033520 65 67 2.0 7.0 0.00 0.00 0.00 93 1018.2
20260902033019 66 82 1.0 4.0 0.00 0.00 0.00 93 1018.2
20260902032522 66 81 0.0 4.0 0.00 0.00 0.00 93 1018.2
20260902032018 66 81 1.0 4.0 0.00 0.00 0.00 93 1018.1
20260902031517 66 80 0.0 3.0 0.00 0.00 0.00 93 1018.1
20260902031017 66 80 1.0 3.0 0.00 0.00 0.00 93 1018.2
20260902030515 66 80 1.0 2.0 0.00 0.00 0.00 93 1018.0
20260902030015 66 80 0.0 2.0 0.00 0.00 0.00 93 1017.9
20260902025514 66 80 0.0 2.0 0.00 0.00 0.00 93 1017.8
20260902025017 66 80 0.0 2.0 0.00 0.00 0.00 93 1017.9
20260902024514 66 80 0.0 0.0 0.00 0.00 0.00 93 1017.9
20260902024013 67 80 0.0 2.0 0.00 0.00 0.00 93 1018.0
20260902023513 67 80 0.0 4.0 0.00 0.00 0.00 93 1017.8
20260902023012 67 80 0.0 4.0 0.00 0.00 0.00 93 1017.6
20260902022512 67 80 2.0 4.0 0.00 0.00 0.00 93 1017.5
20260902022011 67 80 1.0 4.0 0.00 0.00 0.00 93 1017.6
20260902021511 67 80 0.0 2.0 0.00 0.00 0.00 93 1017.7
20260902021011 67 80 0.0 1.0 0.00 0.00 0.00 93 1017.8
20260902020511 67 80 0.0 3.0 0.00 0.00 0.00 93 1017.8
20260902020009 67 80 0.0 3.0 0.00 0.00 0.00 93 1017.7
20260902015509 67 80 1.0 3.0 0.00 0.00 0.00 93 1017.6
20260902015008 67 80 0.0 2.0 0.00 0.00 0.00 93 1017.8
20260902014513 68 80 0.0 0.0 0.00 0.00 0.00 93 1017.7
20260902014009 68 80 0.0 0.0 0.00 0.00 0.00 93 1017.8
20260902013507 68 80 0.0 2.0 0.00 0.00 0.00 93 1017.7
20260902013006 68 80 0.0 4.0 0.00 0.00 0.00 93 1017.7
20260902012506 68 80 0.0 3.0 0.00 0.00 0.00 93 1017.5
20260902012006 68 80 1.0 3.0 0.00 0.00 0.00 93 1017.4
20260902011510 68 80 1.0 3.0 0.00 0.00 0.00 93 1017.3
20260902011006 68 80 0.0 3.0 0.00 0.00 0.00 93 1017.4
20260902010506 68 80 1.0 3.0 0.00 0.00 0.00 93 1017.3
20260902010006 68 80 1.0 5.0 0.00 0.00 0.00 93 1017.2
20260902005505 68 78 0.0 4.0 0.00 0.00 0.00 93 1017.0
20260902005005 69 78 1.0 5.0 0.00 0.00 0.00 93 1016.8
20260902004505 69 78 1.0 5.0 0.00 0.00 0.00 93 1016.7
20260902004004 69 84 1.0 7.0 0.00 0.00 0.00 93 1016.6
20260902003504 69 84 1.0 7.0 0.00 0.00 0.00 93 1016.5
20260902003015 69 85 3.0 7.0 0.00 0.00 0.00 93 1016.3
20260902002505 70 106 2.0 8.0 0.00 0.00 0.00 93 1016.4
20260902002004 70 69 2.0 8.0 0.00 0.00 0.00 93 1016.3
20260902001505 70 86 0.0 3.0 0.00 0.00 0.00 93 1016.3
20260902001003 70 86 1.0 3.0 0.00 0.00 0.00 93 1016.2
20260902000503 70 90 1.0 3.0 0.00 0.00 0.00 93 1016.1
20260902000006 70 90 0.0 6.0 0.00 0.00 0.00 93 1016.0
20260901235503 70 90 0.0 7.0 0.00 0.00 0.00 93 1015.8
20260901235002 70 50 2.0 4.0 0.00 0.00 0.00 93 1015.8
20260901234502 70 36 0.0 2.0 0.00 0.00 0.00 93 1015.7
20260901234003 70 36 0.0 1.0 0.00 0.00 0.00 93 1015.8
20260901233502 70 36 0.0 2.0 0.00 0.00 0.00 93 1015.8
20260901233002 70 36 0.0 2.0 0.00 0.00 0.00 93 1015.7
20260901232504 70 30 0.0 3.0 0.00 0.00 0.00 93 1015.9
20260901232002 70 30 1.0 3.0 0.00 0.00 0.00 93 1016.0
20260901231503 70 30 0.0 3.0 0.00 0.00 0.00 93 1016.0
20260901231002 71 49 0.0 4.0 0.00 0.00 0.00 93 1015.9
20260901230502 71 49 1.0 4.0 0.00 0.00 0.00 93 1015.9
20260901230005 71 40 1.0 5.0 0.00 0.00 0.00 93 1015.8
20260901225501 71 67 1.0 5.0 0.00 0.00 0.00 93 1015.9
20260901225001 71 338 0.0 3.0 0.00 0.00 0.00 93 1015.8
20260901224503 71 41 1.0 4.0 0.00 0.00 0.00 93 1015.6
20260901224103 71 67 1.0 4.0 0.00 0.00 0.00 93 1015.5
20260901223600 71 58 2.0 4.0 0.00 0.00 0.00 93 1015.3
20260901223100 71 355 0.0 5.0 0.00 0.00 0.00 92 1015.6
20260901222559 71 19 1.0 5.0 0.00 0.00 0.00 92 1015.4
20260901222100 71 73 0.0 3.0 0.00 0.00 0.00 92 1015.5
20260901221614 72 73 1.0 4.0 0.00 0.00 0.00 92 1015.4
20260901221100 72 40 1.0 4.0 0.00 0.00 0.00 92 1015.4
20260901220559 72 34 0.0 4.0 0.00 0.00 0.00 92 1015.3
20260901220100 72 34 0.0 4.0 0.00 0.00 0.00 92 1015.2
20260901215559 72 95 1.0 4.0 0.00 0.00 0.00 92 1015.1
20260901215059 72 9 0.0 4.0 0.00 0.00 0.00 92 1015.1
20260901214559 72 5 0.0 4.0 0.00 0.00 0.00 92 1015.1
20260901214058 72 61 1.0 4.0 0.00 0.00 0.00 91 1014.9
20260901213602 72 61 0.0 5.0 0.00 0.00 0.00 91 1014.9
20260901213103 73 35 1.0 5.0 0.00 0.00 0.00 91 1014.9
20260901212603 73 94 0.0 7.0 0.00 0.00 0.00 91 1014.9
20260901212058 73 99 2.0 7.0 0.00 0.00 0.00 90 1014.9
20260901211558 73 42 0.0 3.0 0.00 0.00 0.00 90 1014.9
20260901211101 73 42 1.0 7.0 0.00 0.00 0.00 89 1014.8
20260901210602 73 70 1.0 6.0 0.00 0.00 0.00 89 1014.9
20260901210128 74 9 0.0 5.0 0.00 0.00 0.00 89 1015.0
20260901205557 74 9 1.0 5.0 0.00 0.00 0.00 88 1014.9
20260901205057 74 26 2.0 4.0 0.00 0.00 0.00 88 1014.8
20260901204556 74 86 1.0 3.0 0.00 0.00 0.00 88 1014.5
20260901204057 74 77 0.0 8.0 0.00 0.00 0.00 88 1014.6
20260901203557 75 77 2.0 8.0 0.00 0.00 0.00 87 1014.5
20260901203056 75 333 0.0 4.0 0.00 0.00 0.00 87 1014.6
20260901202557 75 329 1.0 4.0 0.00 0.00 0.00 87 1014.7
20260901202100 75 34 1.0 4.0 0.00 0.00 0.00 87 1014.7
20260901201558 75 34 1.0 6.0 0.00 0.00 0.00 86 1014.6
20260901201057 76 38 1.0 6.0 0.00 0.00 0.00 86 1014.6
20260901200558 76 40 0.0 5.0 0.00 0.00 0.00 86 1014.6
20260901200057 76 355 1.0 3.0 0.00 0.00 0.00 85 1014.4
20260901195555 77 259 1.0 3.0 0.00 0.00 0.00 85 1014.5
20260901195055 77 117 1.0 3.0 0.00 0.00 0.00 85 1014.5
20260901194603 77 55 1.0 3.0 0.00 0.00 0.00 85 1014.5
20260901194056 77 57 0.0 3.0 0.00 0.00 0.00 84 1014.5
20260901193557 78 74 1.0 4.0 0.00 0.00 0.00 84 1014.5
20260901193103 78 46 0.0 5.0 0.00 0.00 0.00 83 1014.5
20260901192553 79 49 1.0 6.0 0.00 0.00 0.00 83 1014.4
20260901192054 79 88 1.0 6.0 0.00 0.00 0.00 83 1014.2
20260901191602 79 85 2.0 6.0 0.00 0.00 0.00 83 1014.3
20260901191053 80 86 0.0 0.0 0.00 0.00 0.00 82 1014.2
20260901190553 80 86 0.0 4.0 0.00 0.00 0.00 82 1014.2
20260901190117 80 86 1.0 6.0 0.00 0.00 0.00 82 1014.1
20260901185553 81 86 1.0 6.0 0.00 0.00 0.00 82 1014.2
20260901185052 81 192 0.0 3.0 0.00 0.00 0.00 80 1014.1
20260901184552 81 192 0.0 3.0 0.00 0.00 0.00 81 1014.2
20260901184051 81 192 0.0 2.0 0.00 0.00 0.00 82 1014.2
20260901183553 81 192 0.0 5.0 0.00 0.00 0.00 83 1014.2
20260901183051 80 192 0.0 5.0 0.00 0.00 0.00 83 1014.1
20260901182548 80 86 0.0 3.0 0.00 0.00 0.00 86 1014.1
20260901182047 80 86 1.0 4.0 0.00 0.00 0.00 86 1014.1
20260901181546 79 170 0.0 5.0 0.00 0.00 0.00 87 1014.1
20260901181044 79 175 2.0 4.0 0.00 0.00 0.00 90 1014.0
20260901180543 78 188 1.0 3.0 0.00 0.00 0.00 91 1014.1
20260901180042 78 190 0.0 4.0 0.00 0.00 0.00 92 1014.0
20260901175540 77 190 0.0 5.0 0.00 0.00 0.00 92 1014.0
20260901175040 77 173 1.0 5.0 0.00 0.00 0.00 93 1014.0
20260901174548 76 173 0.0 2.0 0.00 0.00 0.00 94 1014.0
20260901174038 76 173 0.0 2.0 0.00 0.00 0.00 94 1014.0
20260901173536 76 173 0.0 4.0 0.00 0.00 0.00 94 1013.9
20260901173036 75 173 1.0 5.0 0.00 0.00 0.00 95 1014.0
20260901172534 75 197 2.0 4.0 0.00 0.00 0.00 95 1014.0
20260901172033 75 215 0.0 5.0 0.00 0.00 0.00 95 1014.0
20260901171532 74 216 2.0 5.0 0.00 0.00 0.00 95 1014.0
20260901171030 74 235 2.0 4.0 0.00 0.00 0.00 95 1014.1
20260901170530 74 209 2.0 4.0 0.00 0.00 0.00 95 1014.1
20260901170030 74 141 1.0 7.0 0.00 0.00 0.00 96 1014.1
20260901165533 74 171 3.0 7.0 0.00 0.00 0.00 96 1014.1
20260901165030 74 242 1.0 6.0 0.00 0.00 0.00 96 1014.4
20260901164527 74 196 2.0 7.0 0.00 0.00 0.00 96 1014.3
20260901164025 74 167 3.0 7.0 0.00 0.00 0.00 96 1014.3
20260901163523 73 156 2.0 7.0 0.00 0.00 0.00 97 1014.3
20260901163036 73 234 1.0 8.0 0.00 0.00 0.00 96 1014.3
20260901162520 73 203 2.0 6.0 0.00 0.00 0.00 96 1014.4
20260901162019 72 194 1.0 6.0 0.00 0.00 0.00 96 1014.5
20260901161522 72 221 1.0 5.0 0.00 0.00 0.00 96 1014.7
20260901161017 72 223 2.0 5.0 0.00 0.00 0.00 96 1014.8
20260901160515 72 174 2.0 7.0 0.00 0.00 0.00 96 1014.8
20260901160015 71 129 3.0 7.0 0.00 0.00 0.00 96 1014.9
20260901155513 71 165 2.0 5.0 0.00 0.00 0.00 96 1015.1
20260901155012 71 160 2.0 6.0 0.00 0.00 0.00 96 1015.2
20260901154522 71 189 2.0 6.0 0.00 0.00 0.00 96 1015.3
20260901154011 71 225 3.0 7.0 0.00 0.00 0.00 96 1015.4
20260901153510 71 207 1.0 7.0 0.00 0.00 0.00 96 1015.5
20260901153017 71 194 3.0 6.0 0.00 0.00 0.00 96 1015.5
20260901152509 71 190 2.0 8.0 0.00 0.00 0.00 96 1015.5
20260901152007 71 184 1.0 8.0 0.00 0.00 0.00 96 1015.4
20260901151509 71 194 1.0 4.0 0.00 0.00 0.00 96 1015.4
20260901151007 71 195 2.0 5.0 0.00 0.00 0.00 96 1015.5
20260901150505 71 193 2.0 5.0 0.00 0.00 0.00 96 1015.6
20260901150007 71 189 2.0 4.0 0.00 0.00 0.00 96 1015.6
20260901145506 71 192 2.0 4.0 0.00 0.00 0.00 96 1015.6
20260901145005 71 232 2.0 4.0 0.00 0.00 0.00 96 1015.4
20260901144513 71 238 2.0 4.0 0.00 0.00 0.00 96 1015.4
20260901144004 71 190 1.0 4.0 0.00 0.00 0.00 96 1015.5
20260901143503 71 190 2.0 6.0 0.00 0.00 0.00 96 1015.5
20260901143004 70 232 2.0 6.0 0.00 0.00 0.00 96 1015.4
20260901142503 70 231 0.0 4.0 0.00 0.00 0.00 96 1015.3
20260901142002 70 231 1.0 4.0 0.00 0.00 0.00 96 1015.5
20260901141502 70 147 1.0 5.0 0.00 0.00 0.00 96 1015.5
20260901141101 70 146 1.0 5.0 0.00 0.00 0.00 96 1015.2
20260901140601 70 146 2.0 7.0 0.00 0.00 0.00 96 1015.3
20260901140103 69 202 2.0 5.0 0.00 0.00 0.00 96 1015.5
20260901135558 69 239 2.0 5.0 0.00 0.00 0.00 96 1015.5
20260901135058 69 161 2.0 5.0 0.00 0.00 0.00 96 1015.6
20260901134602 69 155 1.0 3.0 0.00 0.00 0.00 95 1015.6
20260901134100 69 155 0.0 2.0 0.00 0.00 0.00 95 1015.7
20260901133600 69 155 0.0 5.0 0.00 0.00 0.00 95 1015.7
20260901133105 69 155 1.0 6.0 0.00 0.00 0.00 95 1015.7
20260901132556 69 178 2.0 6.0 0.00 0.00 0.00 95 1015.7
20260901132055 69 171 2.0 4.0 0.00 0.00 0.00 95 1015.7
20260901131555 69 172 1.0 3.0 0.00 0.00 0.00 95 1015.6
20260901131054 69 172 0.0 3.0 0.00 0.00 0.00 95 1015.6
20260901131024 69 172 0.0 3.0 0.00 0.00 0.00 95 1015.6
20260901130554 69 172 1.0 3.0 0.00 0.00 0.00 95 1015.7